{"data":{"norad_id":49308,"epoch":"2026-09-20T05:17:09.957696Z","epoch_age_seconds":49848,"freshness":"FRESH","line1":"1 49308U 21090AF  26263.22025414  .00000047  00000+0  82456-4 0  9994","line2":"2 49308  87.9143 255.4763 0002251  91.2641 268.8750 13.20772908242365","mean_motion":13.20772908,"eccentricity":0.0002251,"inclination_deg":87.9143,"raan_deg":255.4763,"arg_perigee_deg":91.2641,"mean_anomaly_deg":268.875,"bstar":8.2456e-5,"rev_number":24236,"period_min":109.02706977693,"perigee_km":1180.0674591804,"apogee_km":1183.470928949,"semimajor_km":7559.9061940647,"source":"CELESTRAK","updated_at":"2026-09-20T09:00:44.674900Z"}}